星链-2583 (STARLINK-2583 )

导读

STARLINK-2583是美国SpaceX公司星链星座组网卫星,于2021年5月9日由猎鹰9号火箭发射升空,属于星链第一代V1.5批次卫星。该星运行在550公里左右近地轨道,配备相控阵天线与氪离子推进系统,可支持全球宽带互联网接入,具备基础轨道机动与避碰能力,设计寿命约5年,是星链全球低轨卫星通信星座建设过程中的组成单元。

基本信息
目录编号:
48439
目录名称:
STARLINK-2583
国际标识:
2021-040M
轨道中心:
EARTH
卫星名称:
星链-2583
卫星全名:
星链-2583 (STARLINK-2583 )
卫星状态:
在轨 (已飞行1866 天)
发射日期:
2021-05-09 UTC
国别 :
美国 (US)
星等 :
--
轨道信息
数据来源 国际轨道数据 AOE轨道数据
星历时间 2026-06-18T08:12:26+0800
15小时前
查看轨道信息
2026-06-14T01:00:00+0800
4天前
查看轨道信息
半长轴 6848.869km 6848.865km
偏心率 0.0001256 0.0001307
轨道倾角 53.161° 53.161°
近地点辐角 81.364° 106.989°
升交点赤经 71.693° 91.715°
平近点角 278.750° 287.518°
近地点 469.871km 469.832km
远地点 471.593km 471.624km
周期 94.013分钟 94.013分钟
每日圈数 15.317029 15.317042
详细信息
固有亮度:
5
最大亮度:
2.5
卫星平台:
Starlink V1.0
覆盖范围:
全球
运营商:
太空探索技术公司
运营商所在国:
美国
制造商(研发单位):
太空探索技术公司
制造商所在国:
美国
使用方式:
暂无
卫星简介
星链(Starlink)计划是由太空探索技术公司(SpaceX)提出的一个巨型低轨卫星互联网星座项目,计划在2019年至2024年间在太空搭建由约1.2万颗卫星组成的“星链”网络,其中1584颗将部署在地球上空550千米处的近地轨道,并从2020年开始工作。该卫星仍在工作。
2D轨道图
3D轨道图
轨道高度分析图
轨道倾角分析图
轨道综合分析图
查看轨道综合分析图